Home   Weather   Daytona Beach   Past weeks

Flag for USA Past Weather in Daytona Beach, Florida, USA — Yesterday and Last 2 Weeks

81 °F

Passing clouds.

Feels Like: 82 °F
Forecast: 71 / 81 °F
Wind: 15 mph from East

Location: Daytona Beach Regional Airport

Current Time: Oct 26, 2016 at 3:25:40 PM

Latest Report: Oct 26, 2016 at 2:53 PM

Visibility: 10 mi

Pressure: 30.20 "Hg

Humidity: 54%

Dew Point: 63 °F

Location of Daytona BeachLocation

Past Weather in Daytona Beach — Graph


Daytona Beach Temperature Yesterday

Maximum temperature yesterday: 78 °F (at 12:53 PM)
Minimum temperature yesterday: 55 °F (at 4:53 AM)
Average temperature yesterday: 67 °F

High & Low Weather Summary for the Past Weeks

High85 °F (Oct 21, 4:53 PM)100% (Oct 13, 6:53 AM)30.27 "Hg (Oct 13, 6:53 AM)
Low54 °F (Oct 23, 5:53 AM)38% (Oct 22, 2:53 PM)29.74 "Hg (Oct 21, 4:53 PM)
Average73 °F72%30.07 "Hg
* Reported Oct 11 1:53 PM — Oct 26 1:53 PM, Daytona Beach, Weather by CustomWeather, © 2016

Note: Actual official high and low records may vary slightly from our data, if they occured in-between our weather recording intervals... More about our weather records


Daytona Beach Weather History for the Previous 24 Hours

Scroll right to see more
Time TempWeatherWind HumidityBarometerVisibility
1:53 PM
Wed, Oct 26
81 °FPassing clouds.18 mph53%30.21 "Hg10 mi
12:53 PM81 °FPassing clouds.13 mph53%30.23 "Hg10 mi
11:53 AM80 °FPassing clouds.15 mph54%30.25 "Hg10 mi
10:53 AM80 °FPassing clouds.15 mph54%30.25 "Hg10 mi
9:53 AM79 °FPassing clouds.15 mph58%30.24 "Hg10 mi
8:53 AM76 °FPassing clouds.9 mph67%30.22 "Hg10 mi
7:53 AM72 °FPassing clouds.7 mph71%30.21 "Hg10 mi
6:53 AM71 °FPassing clouds.6 mph73%30.20 "Hg10 mi
5:53 AM72 °FClear.7 mph71%30.19 "Hg10 mi
4:53 AM73 °FClear.7 mph66%30.19 "Hg10 mi
3:53 AM67 °FPassing clouds.5 mph85%30.19 "Hg10 mi
2:53 AM68 °FPassing clouds.5 mph82%30.20 "Hg10 mi
1:53 AM70 °FPassing clouds.5 mph73%30.20 "Hg10 mi
12:53 AM71 °FPassing clouds.7 mph76%30.20 "Hg10 mi
11:53 PM
Tue, Oct 25
65 °FPassing clouds.No wind94%30.21 "Hg10 mi
10:53 PM66 °FPassing clouds.3 mph93%30.22 "Hg10 mi
9:53 PM67 °FPassing clouds.No wind90%30.21 "Hg10 mi
8:53 PM68 °FPassing clouds.5 mph84%30.19 "Hg10 mi
7:53 PM72 °FPassing clouds.6 mph76%30.18 "Hg10 mi
6:53 PM73 °FPartly cloudy.6 mph74%30.17 "Hg10 mi
5:53 PM75 °FPartly sunny.10 mph66%30.16 "Hg10 mi
4:53 PM77 °FPartly sunny.10 mph60%30.16 "Hg10 mi
3:53 PM78 °FScattered clouds.10 mph56%30.16 "Hg10 mi
Weather by CustomWeather, © 2016

See weather overviewHow to use our weather pages